Regional Weather Roundup
Issued by NWS State College, PA

Home | Current Version | Previous Version | Graphics & Text | Print | Product List | Glossary On
Versions: 1 2 3 4 5 6 7 8 9 10 11 12 13 14 15 16 17 18 19 20 21 22 23 24 25 26 27 28 29 30 31 32 33 34 35 36 37 38 39 40 41 42 43 44 45 46 47 48 49 50
000
ASUS41 KCTP 252310
RWRCTP

REGIONAL WEATHER ROUNDUP
NATIONAL WEATHER SERVICE STATE COLLEGE PA
700 PM EDT SAT OCT 25 2014

Note: "fair" indicates few or no clouds below 12,000 feet with no
significant weather and/or obstructions to visibility.

* = STATION THAT DOES NOT REPORT PRECIPITATION /E.G. RAIN...SNOW...ETC/
    THUNDER OR FOG.

PAZ002>004-007>009-013>016-020>023-029>032-260000-
WESTERN PENNSYLVANIA

CITY           SKY/WX    TMP DP  RH WIND       PRES   REMARKS
ERIE           CLEAR     60  52  74 W10G20    29.71S
MEADVILLE      CLEAR     58  47  66 W13       29.72R
FRANKLIN*      CLEAR     61  43  51 W20G31    29.74R
NEW CASTLE       N/A     63  52  67 SW3       29.74S
BEAVER COUNTY  MOCLDY    64  52  63 W7G16     29.75S
BUTLER*        PTCLDY    63  50  63 SW9       29.75F
PITTSBURGH INT PTCLDY    63  52  67 SW12      29.76S
PITTSBURGH     CLEAR     63  48  58 SW14G23   29.75F
INDIANA*       MOCLDY    61  50  67 W12G17    29.77S
LATROBE        PTCLDY    63  52  67 SW12G23   29.77R
WASHINGTON CO* PTCLDY    63  50  63 SW10G17   29.80F
$$

PAZ004>006-010>012-017>019-024>028-033>037-041-042-045-046-049>053-260000-
CENTRAL PENNSYLVANIA

CITY           SKY/WX    TMP DP  RH WIND       PRES   REMARKS
BRADFORD       PTCLDY    58  46  64 W15G29    29.68R
DUBOIS         PTCLDY    58  49  72 SW14G26   29.69F
CLEARFIELD     PTCLDY    60  48  64 SW12      29.69F
JOHNSTOWN      CLOUDY    59  46  62 W14G26    29.76R
ALTOONA        MOCLDY    62  48  60 W12G24    29.74R
STATE COLLEGE  PTCLDY    61  48  63 SW12      29.70R
WILLIAMSPORT   CLEAR     63  47  55 W8        29.64S
SELINSGROVE    CLOUDY    63  48  58 S3        29.67S
FT INDIANTOWN  PTCLDY    61  50  67 N2        29.68S
CAPITAL CITY   MOCLDY    64  45  49 SW5       29.68S
HARRISBURG     PTCLDY    65  46  50 SW12      29.67S
YORK           CLEAR     64  44  48 SW7       29.69F
$$

PAZ038>040-043-044-047-048-054-055-060>062-067>071-260000-
EASTERN PENNSYLVANIA

CITY           SKY/WX    TMP DP  RH WIND       PRES   REMARKS
SCRANTON       PTCLDY    65  43  44 SW13G21   29.62F
MOUNT POCONO   CLOUDY    59  43  55 W10       29.65F
ALLENTOWN      MOCLDY    60  43  53 SW8       29.65F
QUAKERTOWN*    CLOUDY    63  45  51 SW6       29.67F
READING        CLOUDY    64  45  49 SW9       29.66F
LANCASTER      MOCLDY    64  44  48 SW8       29.68S
COATESVILLE    MOCLDY    63  46  55 CALM      29.70F
POTTSTOWN      CLOUDY    64  43  46 SW3       29.68F
BLUE BELL      CLOUDY    64  45  48 SW3       29.67F
DOYLESTOWN     CLOUDY    63  43  48 SW8       29.66F
WILLOW GROVE   NOT AVBL
NORTH PHILA    MOCLDY    66  41  40 SW6       29.69F
PHILADELPHIA   MOCLDY    66  45  46 SW10      29.69F
$$



USA.gov is the U.S. government's official web portal to all federal, state and local government web resources and services.